Location: Alta
(39.2070°N, 120.8111°W)
Time: 14:01:30
(UTC+00:00)

CZ-4B DEB - Pass Details

Date: 12 December 2023
Orbit: 837 x 858 km, 99.0° (Epoch: 21 February)

Event Time Altitude Azimuth Distance (km) Brightness Sun altitude
Rises 02:01:10 0° 132° (SE) 3,420 7.1 -15.2°
Reaches altitude 10° 02:03:52 10° 121° (ESE) 2,489 6.3 -15.7°
Enters shadow 02:03:56 10° 120° (ESE) 2,469 6.2 -15.7°
Exits shadow 02:06:48 23° 92° (E) 1,737 5.3 -16.2°
Maximum altitude 02:08:24 27° 65° (ENE) 1,603 5.1 -16.5°
Drops below altitude 10° 02:12:57 10° 10° (N) 2,501 6.4 -17.3°
Sets 02:15:39 0° 359° (N) 3,441 7.2 -17.8°
